STARLINK-34815, 65099

Orbit data source: Space-Track

STARLINK-34815, 65099 is a payload satellite owned by SpaceX/Seattle (US) in LEO that was launched on Mon, 04 Aug 2025 UTC via an FALCON 9 launch vehicle from the Air Force Eastern Test Range (AFETR). Payload-class satellites include a variety of spacecraft equipped with specific instruments for various scientific and technological missions. These include communications satellites like Starlink; space stations such as the ISS; scientific satellites like the Hubble; Earth observation satellites from companies like Planet Labs, Umbra, and HawkEye 360; GPS; miniature CubeSats for education and research; and military/defense satellites.

Loading next visibility...
Identifier
65099, 2025-167X
Orbit
LEO
Country
Flag of USUS
Related business
Manufacturer
SpaceX/Seattle
Mission
Operational Commercial Communications
Bus & Motor
STARLINK V2MO, Unknown motor
Mass
575 kg wet, ~530 kg dry
Launch date (UTC)
2025-08-04 (11 months ago)
Launch vehicle
FALCON 9
Launch site
Air Force Eastern Test Range (AFETR)
Object type
Payload
Rocket body
Debris
Shape & HBR
Box + 2 Pan, 17.7 m
Radar Cross Section
36.964 m², Large (>1 m²)

Expand to show TLE details & history
Last TLE update: 2 days ago

TLE from 2 days ago
0 STARLINK-34815
1 65099U 25167X   26173.51795976  .00018637  00000-0  56173-3 0  9998
2 65099  53.1580 258.0330 0001134  90.6039 269.5093 15.34379016 49556
Epoch: 2026-06-22T12:25Z
TLE epoch observation values (Epoch: 2026-06-22T12:25:51.723Z)
Latitude
-0.00005°
Longitude
160.86472°
Altitude
463.673 km
Speed
7.636 km/s
True Right ascension
17h 12m 07s
True Declination
0° 00' 00"
Sunlit
Object was in full shadow at epoch
Visualization orbit readout
Latitude
Unknown
Longitude
Unknown
Altitude
Unknown
Speed
Unknown
Apparent Right ascension
Unknown
Apparent Declination
Unknown
Sunlit
N/A
Visualization observer readout
Local Sidereal Time
13:49:41
Azimuth
Unknown
Elevation
Unknown
Doppler factor
Unknown
Orbital elements
Apogee altitude
463.799 km
Perigee altitude
462.247 km
Semi-major axis
6,841.16 km
Eccentricity
0.00011
Inclination
53.158°
RAAN
258.033°
Arg. of periapsis
90.6039°
True anomaly
269.49631°
Mean anomaly
269.5093°
Eccentric anomaly
269.5028°
Mean motion
3.83573 °/min
Orbital period
93.85 mins
BSTAR
0.00056173
Loading maneuver chart data...
Computing Atmospheric mass density...
Loading historical data...
Loading historical data...
Loading historical data...
Loading historical data...
Loading historical data...
Loading historical data...
Loading historical data...

Documentation

Showing up to 5 results
|